Location: Newark
(36.1358°N, 115.1208°W)
Time: 04:39:00
(UTC+00:00)

Envisat - Visible Passes

Search period start: 22 January 2020 00:00
Search period end: 01 February 2020 00:00
Orbit: 764 x 766 km, 98.1° (Epoch: 21 January)

Date Brightness Start Highest point End Pass type
(mag) Time Alt. Az. Time Alt. Az. Time Alt. Az.
22 Jan 5.6 02:37:31 10° SW 02:41:22 22° W 02:45:15 10° NW visible
22 Jan 6.1 13:10:24 10° NE 13:13:26 16° E 13:16:28 10° SE visible
23 Jan 4.0 01:59:30 10° S 02:04:25 51° W 02:09:22 10° NNW visible
23 Jan 3.5 14:10:56 10° NNE 14:16:00 69° ESE 14:21:03 10° S visible
24 Jan 3.0 01:22:38 10° SSE 01:27:39 68° ENE 01:32:42 10° N visible
24 Jan 6.3 03:05:25 10° WSW 03:07:06 11° W 03:08:46 10° WNW visible
24 Jan 5.2 13:34:44 10° NE 13:39:08 29° E 13:43:29 10° SSE visible
25 Jan 5.2 02:25:42 10° SSW 02:30:00 28° W 02:34:21 10° NW visible
25 Jan 6.3 13:00:09 10° ENE 13:02:03 12° E 13:03:56 10° ESE visible
26 Jan 3.5 01:48:04 10° S 01:53:06 67° WSW 01:58:10 10° NNW visible
26 Jan 4.0 13:59:44 10° NNE 14:04:42 53° E 14:09:38 10° S visible
27 Jan 6.1 02:52:47 10° SW 02:55:41 15° W 02:58:37 10° WNW visible
27 Jan 5.6 13:23:48 10° NE 13:27:46 22° E 13:31:41 10° SE visible
28 Jan 4.7 02:14:02 10° SSW 02:18:39 36° W 02:23:19 10° NNW visible
29 Jan 3.1 01:36:44 10° SSE 01:41:49 85° WSW 01:46:55 10° NNW visible
29 Jan 4.5 13:48:35 10° NNE 13:53:23 41° E 13:58:08 10° SSE visible
30 Jan 5.7 02:40:39 10° SW 02:44:18 20° W 02:47:58 10° NW visible
30 Jan 6.0 13:13:02 10° NE 13:16:22 17° E 13:19:42 10° SE visible
31 Jan 4.2 02:02:28 10° S 02:07:20 46° W 02:12:12 10° NNW visible
31 Jan 3.3 14:13:49 10° NNE 14:18:54 76° ESE 14:23:58 10° S visible
